Location: DARK SKY Beskydy - Park tmavé oblohy, www.darkskybeskydy.cz
(49.4926°N, 18.5016°E)
Time: 04:30:15
(UTC+02:00)

A-11 Canister half - Pass Details

Date: 29 February 2024
Orbit: 1513 x 1686 km, 47.2° (Epoch: 24 April)

Event Time Altitude Azimuth Distance (km) Brightness Sun altitude
Rises 08:12:43 0° 288° (WNW) 4,881 11.0 14.7°
Reaches altitude 10° 08:17:05 10° 272° (W) 3,861 10.6 15.3°
Maximum altitude 08:23:14 19° 233° (SW) 3,160 10.6 16.1°
Drops below altitude 10° 08:29:15 10° 193° (SSW) 3,761 11.4 16.9°
Sets 08:33:28 0° 176° (S) 4,711 12.2 17.5°
